{"data":{"norad_id":51131,"intl_designator":"2022-005AD","name":"STARLINK-3388","alt_names":[],"object_type":"PAYLOAD","status":"ACTIVE","operator":null,"country":"US","launch_date":"2022-01-19","launch_site_code":"AFETR","launch_vehicle":null,"mission":null,"orbit_class":"UNKNOWN","rcs_meters":null,"size_class":null,"mass_kg":null,"dimensions":null,"purposes":["comms"],"wikipedia_slug":null,"has_3d_model":false,"image_url":null,"decayed_at":null,"tle_current":{"epoch":"2026-09-20T03:33:05.511744Z","epoch_age_seconds":78629,"freshness":"FRESH","line1":"1 51131U 22005AD  26263.14798046 -.00000283  00000+0  26320-5 0  9999","line2":"2 51131  53.1585 131.4325 0001184  89.7507 270.3630 15.31698060258284","mean_motion":15.3169806,"eccentricity":0.0001184,"inclination_deg":53.1585,"raan_deg":131.4325,"arg_perigee_deg":89.7507,"mean_anomaly_deg":270.363,"bstar":2.632e-6,"rev_number":25828,"period_min":94.0133070352,"perigee_km":469.93487054985,"apogee_km":471.55668599175,"semimajor_km":6848.8827782708,"source":"CELESTRAK","updated_at":"2026-09-20T09:00:39.589149Z"}}}